TimeCST,TemperatureF,Dew PointF,Humidity,Sea Level PressureIn,VisibilityMPH,Wind Direction,Wind SpeedMPH,Gust SpeedMPH,PrecipitationIn,Events,Conditions,WindDirDegrees,DateUTC
12:53 AM,26.1,19.9,78,30.03,5.0,NE,9.2,-,N/A,,Haze,40,2012-12-25 06:53:00
1:53 AM,25.0,19.0,78,30.05,5.0,NE,5.8,-,N/A,,Haze,40,2012-12-25 07:53:00
2:53 AM,25.0,19.0,78,30.05,5.0,NE,5.8,-,N/A,,Haze,50,2012-12-25 08:53:00
3:53 AM,24.1,19.0,81,30.04,5.0,NE,5.8,-,N/A,,Haze,40,2012-12-25 09:53:00
4:53 AM,24.1,19.0,81,30.01,5.0,NE,5.8,-,N/A,,Haze,40,2012-12-25 10:53:00
5:53 AM,23.0,19.0,85,30.02,5.0,ENE,3.5,-,N/A,,Partly Cloudy,60,2012-12-25 11:53:00
6:06 AM,23.0,19.4,86,30.01,5.0,ENE,4.6,-,N/A,,Mostly Cloudy,70,2012-12-25 12:06:00
6:53 AM,24.1,19.9,84,30.07,5.0,NNE,4.6,-,N/A,,Overcast,30,2012-12-25 12:53:00
7:53 AM,25.0,19.9,81,30.10,4.0,NE,4.6,-,N/A,,Haze,40,2012-12-25 13:53:00
8:53 AM,25.0,19.0,78,30.09,5.0,NE,10.4,-,N/A,,Haze,40,2012-12-25 14:53:00
9:53 AM,26.1,19.9,78,30.04,5.0,NE,10.4,19.6,N/A,,Haze,40,2012-12-25 15:53:00
9:58 AM,26.6,19.4,74,30.01,5.0,NE,9.2,-,N/A,,Haze,50,2012-12-25 15:58:00
10:53 AM,28.9,21.0,72,30.03,6.0,NE,10.4,16.1,N/A,,Haze,50,2012-12-25 16:53:00
11:53 AM,30.0,21.0,69,29.97,6.0,ENE,12.7,23.0,N/A,,Haze,60,2012-12-25 17:53:00
12:53 PM,30.9,21.0,67,29.94,7.0,NE,9.2,20.7,N/A,,Partly Cloudy,40,2012-12-25 18:53:00
1:53 PM,30.9,21.0,67,29.93,7.0,NE,11.5,20.7,N/A,,Clear,40,2012-12-25 19:53:00
2:53 PM,32.0,21.9,66,29.96,7.0,NE,10.4,17.3,N/A,,Overcast,40,2012-12-25 20:53:00
3:53 PM,32.0,21.9,66,29.94,7.0,NNE,9.2,19.6,N/A,,Overcast,30,2012-12-25 21:53:00
4:28 PM,32.0,21.2,64,29.87,7.0,NNE,15.0,29.9,N/A,,Overcast,30,2012-12-25 22:28:00
4:53 PM,32.0,23.0,69,29.90,7.0,NNE,12.7,28.8,N/A,,Overcast,20,2012-12-25 22:53:00
5:53 PM,32.0,21.9,66,29.90,8.0,North,13.8,28.8,N/A,,Overcast,10,2012-12-25 23:53:00
6:34 PM,30.2,23.0,75,29.87,2.5,North,11.5,29.9,0.00,Snow,Light Snow,10,2012-12-26 00:34:00
6:53 PM,30.9,23.0,72,29.89,1.8,North,17.3,29.9,0.00,Snow,Light Snow,10,2012-12-26 00:53:00
7:48 PM,30.2,24.8,80,29.86,3.0,North,13.8,26.5,0.00,Snow,Light Snow,10,2012-12-26 01:48:00
7:49 PM,30.9,24.1,76,29.89,3.0,North,13.8,26.5,0.00,Snow,Light Snow,10,2012-12-26 01:49:00
8:10 PM,30.2,23.0,75,29.86,7.0,North,15.0,27.6,0.00,Rain,Light Freezing Rain,360,2012-12-26 02:10:00
8:23 PM,30.2,23.0,75,29.86,6.0,North,10.4,34.5,0.00,Snow,Light Snow,10,2012-12-26 02:23:00
8:35 PM,30.2,23.0,75,29.87,7.0,North,11.5,25.3,0.00,Rain,Light Freezing Rain,360,2012-12-26 02:35:00
8:53 PM,30.9,23.0,72,29.89,5.0,North,16.1,27.6,0.00,Snow,Light Snow,360,2012-12-26 02:53:00
9:09 PM,30.2,24.8,80,29.87,2.0,North,11.5,28.8,0.00,Snow,Light Snow,360,2012-12-26 03:09:00
9:16 PM,30.2,24.8,80,29.86,1.8,North,12.7,29.9,0.00,Snow,Light Snow,360,2012-12-26 03:16:00
9:39 PM,28.4,24.8,86,29.86,1.2,North,11.5,25.3,0.00,Snow,Light Snow,360,2012-12-26 03:39:00
9:53 PM,28.9,25.0,85,29.89,1.2,North,10.4,26.5,0.00,Snow,Light Snow,350,2012-12-26 03:53:00
10:53 PM,28.0,24.1,85,29.90,2.0,North,11.5,21.9,0.00,Snow,Light Snow,360,2012-12-26 04:53:00
11:04 PM,28.4,23.0,80,29.88,4.0,North,13.8,25.3,0.00,Snow,Light Snow,350,2012-12-26 05:04:00
11:53 PM,28.0,21.0,75,29.91,8.0,North,12.7,28.8,0.00,,Overcast,350,2012-12-26 05:53:00